Location: Lane
(33.5226°N, 79.8788°W)
Time: 00:05:36
(UTC+00:00)

Vanguard 1 Rocket - Pass Details

Date: 05 October 2022
Orbit: 650 x 4225 km, 34.3° (Epoch: 05 December)

Event Time Altitude Azimuth Distance (km) Brightness Sun altitude
Rises 02:48:46 0° 269° (W) 7,788 12.7 -46.7°
Reaches altitude 10° 02:54:46 10° 270° (W) 6,305 12.0 -47.7°
Enters shadow 03:09:02 58° 276° (W) 2,548 9.5 -50.0°
